Wind_Speed
12 13 14 15 15 16 16 17 18 18 19 20 21 21 20 21 21 21 22 23 24 25 26 26 25 21 21 23 17 19 20 21 21 19 22 23 19 18 17 17 17 14 14 15 8 16 12
11 12 13 14 14 14 15 16 17 16 16 17 18 18 19 19 21 20 21 21 22 23 24 25 26 25 27 28 24 21 21 22 24 22 21 26 27 27 26 21 21 22 20 18 12 15 8
10 10 11 12 13 15 16 17 18 19 21 21 21 22 23 24 25 24 24 23 23 23 24 24 24 23 26 30 31 26 26 25 25 28 26 28 33 33 29 26 29 25 21 19 19 19 12
14 15 16 18 19 20 21 22 23 24 25 25 26 26 26 27 28 30 31 30 31 30 28 26 25 26 25 28 30 32 30 28 28 29 31 31 32 36 35 31 32 28 26 22 21 22 13
15 18 19 19 20 21 24 26 27 27 29 29 30 31 30 32 33 32 32 32 34 37 36 34 32 31 32 30 31 31 34 34 33 33 33 36 35 33 37 37 37 36 26 25 25 25 12
20 22 24 25 26 27 28 27 26 26 27 29 31 32 34 34 34 34 33 35 36 36 37 42 39 38 38 37 37 35 33 38 39 39 38 35 36 35 35 39 40 33 26 29 29 28 24
27 27 26 25 26 27 28 30 31 30 29 29 30 32 33 33 33 35 38 39 40 40 42 42 45 47 45 44 43 42 40 39 43 45 42 39 36 34 25 30 31 33 34 31 28 30 30
28 28 29 29 30 32 33 33 33 33 33 33 33 36 36 39 41 40 41 42 44 42 45 45 44 48 52 53 51 50 47 46 45 45 48 47 38 25 37 35 32 34 36 35 32 35 35
30 31 32 31 32 33 33 34 35 36 36 36 40 43 44 46 46 48 48 48 47 47 43 40 42 45 46 52 51 55 55 52 50 49 49 51 37 37 39 40 40 38 35 33 31 37 38
31 31 32 33 35 36 37 40 41 39 39 41 44 46 47 47 46 43 45 44 39 37 42 41 38 39 40 42 48 50 56 57 56 54 51 54 47 48 44 42 42 42 33 32 36 39 42
34 36 37 38 38 38 42 42 39 39 40 44 45 46 46 44 43 36 34 35 31 29 39 36 35 31 28 34 40 45 46 54 55 58 59 55 50 56 50 40 42 35 38 38 39 43 42
40 40 39 40 38 41 43 42 39 42 44 45 46 44 42 41 37 31 26 27 30 31 36 36 34 34 32 33 34 35 44 45 52 57 62 60 55 56 56 48 46 36 44 43 45 46 56
41 40 40 40 40 42 44 42 43 46 45 45 45 39 37 34 33 27 25 28 30 31 38 39 40 37 37 38 38 40 36 46 48 55 62 65 59 61 60 56 50 49 48 50 51 57 58
40 39 40 43 43 45 48 45 45 45 42 41 42 38 34 33 31 24 26 25 31 31 34 35 38 40 38 39 40 42 43 42 49 49 56 66 66 65 63 61 56 53 54 57 59 59 56
40 41 43 41 43 45 45 42 42 41 38 38 38 37 34 30 27 23 29 32 33 34 35 37 38 39 40 41 42 43 47 45 48 52 52 60 69 68 64 63 62 60 60 54 55 55 54
43 43 43 44 46 47 45 44 35 33 36 37 35 31 30 26 22 27 33 33 33 35 37 38 39 39 40 41 42 42 45 48 46 53 57 56 67 71 67 66 64 63 57 56 60 59 57
44 44 45 44 46 47 46 40 29 34 36 34 31 30 22 19 26 33 35 32 35 39 40 41 37 37 39 39 40 42 45 47 48 48 58 58 61 69 69 67 64 63 65 61 55 56 58
45 44 45 48 46 44 35 27 29 34 34 30 25 20 21 27 33 35 33 34 40 40 40 38 35 35 38 38 40 42 46 45 47 50 54 64 61 61 71 65 63 67 63 64 65 63 60
47 46 47 47 38 28 25 28 31 31 25 18 17 21 27 32 34 30 32 36 39 38 37 34 33 35 36 35 36 37 39 40 46 47 53 63 63 59 64 64 62 66 67 64 65 62 62
47 46 42 36 30 28 28 29 30 26 19 17 21 29 32 29 30 31 30 31 33 35 33 31 31 33 32 30 31 33 32 32 32 32 42 57 64 57 60 65 70 68 70 66 67 64 61
42 36 37 36 34 31 30 29 27 22 20 22 28 29 29 32 34 34 31 31 29 29 31 31 31 29 29 30 30 31 34 33 28 29 32 43 60 59 54 61 68 64 68 66 69 63 62
36 37 38 36 33 31 29 27 23 20 23 30 27 24 25 29 36 39 37 34 32 31 27 26 25 25 27 28 30 31 33 34 31 24 31 38 47 55 53 53 64 67 67 67 67 64 62
34 32 32 31 30 27 23 19 19 22 26 20 19 19 22 28 36 36 33 30 29 28 23 24 23 23 22 25 29 30 36 32 29 28 28 37 45 47 44 50 63 64 65 69 67 64 61
31 33 33 32 30 29 27 24 21 20 20 19 15 18 22 29 32 29 27 26 28 28 24 21 18 19 13 17 20 26 27 29 26 21 27 35 45 43 45 43 65 64 64 67 69 66 59
34 34 33 33 30 28 26 25 22 20 18 16 20 22 23 29 30 32 30 29 29 27 22 20 16 11 14 21 19 16 20 27 26 26 25 34 43 41 49 45 61 65 65 63 68 67 60
33 36 34 30 27 27 27 24 21 17 18 22 23 24 25 29 34 41 40 32 27 24 17 17 11 11 16 16 17 14 11 15 22 24 24 33 37 40 44 43 46 66 66 62 66 64 60
34 33 30 27 25 28 24 22 19 20 21 24 28 29 29 34 40 46 49 40 31 22 14 19 16 19 17 21 12 9 6 5 10 12 25 35 38 37 44 40 40 53 68 58 61 58 60
36 29 25 22 26 24 21 21 19 20 23 23 26 29 32 35 41 47 52 53 39 34 14 21 19 19 25 18 15 13 13 7 8 25 33 33 32 37 38 48 47 46 65 61 60 57 53
34 27 23 20 25 22 23 20 19 19 18 24 25 25 31 36 40 44 48 51 50 48 27 18 15 21 25 32 29 26 26 24 29 31 27 20 27 40 45 48 52 51 56 65 55 54 50
Wind_Direction
303 300 299 297 296 297 296 295 296 297 297 296 294 292 291 289 287 283 279 277 275 273 269 268 264 259 262 262 262 256 254 243 240 228 218 209 208 215 215 213 221 212 199 183 205 219 194
311 310 308 307 306 306 308 310 312 313 315 313 311 307 304 302 299 298 295 290 284 275 271 268 268 262 255 256 258 253 255 248 242 232 223 213 212 213 214 208 210 214 204 203 168 164 186
338 340 336 330 326 323 319 316 314 311 310 307 305 305 306 304 302 299 294 293 291 288 281 276 271 266 259 257 256 250 250 248 243 235 224 218 214 213 213 212 210 212 209 205 193 198 206
352 346 338 330 325 322 319 314 312 310 308 305 304 301 299 301 301 297 293 292 289 284 278 277 275 275 270 260 254 250 250 252 249 245 234 226 224 218 215 211 216 218 211 207 205 210 238
336 329 325 322 318 317 315 313 311 311 312 306 305 300 299 298 295 295 291 289 286 282 280 276 275 270 271 268 264 255 246 243 245 245 242 234 226 223 221 217 220 221 214 210 211 204 211
326 322 316 313 311 310 312 316 313 312 313 312 309 304 300 297 294 291 289 284 278 278 277 271 270 271 268 267 264 258 251 244 239 241 241 239 234 230 226 225 226 230 217 217 220 212 205
322 320 318 314 313 313 314 312 312 308 307 308 306 303 302 300 299 295 288 284 279 278 273 273 268 261 264 265 263 261 254 247 241 238 241 240 237 236 242 241 237 230 229 224 224 224 216
323 321 320 317 316 313 310 309 309 304 304 305 310 311 309 309 307 302 296 293 293 285 280 275 269 262 256 259 260 258 253 249 245 241 239 239 235 229 229 227 227 228 226 223 222 230 223
323 320 318 316 313 311 309 307 306 305 308 307 311 311 311 312 310 308 305 302 299 295 291 284 274 268 261 256 254 254 249 246 244 241 239 239 231 229 230 228 225 228 222 221 219 227 233
322 321 321 318 316 313 312 313 311 311 310 308 312 313 314 313 312 310 306 302 297 295 290 287 285 279 269 258 250 249 246 244 239 237 235 236 228 226 224 225 226 225 227 222 218 222 227
315 315 317 318 317 314 312 312 311 310 313 312 312 314 315 313 310 306 302 295 290 285 286 291 294 290 280 271 261 250 247 242 236 232 232 234 229 228 225 220 226 219 226 224 222 223 223
315 315 315 314 314 315 317 313 311 311 312 311 312 312 312 310 305 303 289 287 284 279 280 290 292 288 283 277 270 263 251 242 241 231 228 228 226 229 225 218 222 213 219 220 220 222 224
317 316 317 315 319 321 317 312 310 311 311 310 309 310 309 305 299 298 288 288 288 284 283 282 285 284 280 277 274 266 260 243 240 235 228 226 223 225 226 217 216 212 213 217 218 218 220
315 314 315 312 311 316 315 309 309 309 309 307 309 313 306 299 298 284 293 287 289 285 284 284 285 283 277 269 266 262 260 259 240 238 233 227 220 224 222 222 216 215 213 220 217 218 221
316 313 310 313 316 319 318 314 308 306 308 310 314 311 308 301 291 288 299 291 288 285 286 286 286 283 276 268 263 259 260 259 251 242 238 230 221 218 222 219 218 214 214 219 225 225 224
317 313 311 309 315 317 318 315 308 311 314 316 316 313 306 299 289 294 301 296 289 288 292 288 285 279 273 270 267 261 255 252 252 248 243 237 224 219 219 217 218 215 215 217 219 222 226
321 315 313 313 315 317 317 313 316 318 318 318 316 312 305 300 301 303 300 294 293 296 293 291 287 281 275 271 266 260 256 254 251 247 248 241 231 218 217 217 214 212 214 214 223 230 228
322 318 317 320 321 318 315 316 319 319 319 316 318 317 310 308 304 305 304 297 296 294 293 292 287 279 275 275 269 264 262 254 254 250 246 239 238 224 217 219 212 214 212 216 219 222 223
320 319 321 322 324 322 317 319 322 326 327 329 324 312 313 312 313 313 306 299 296 299 299 294 287 277 275 271 266 260 258 265 265 248 234 231 232 228 214 212 213 213 210 214 217 220 224
327 326 329 331 331 325 320 317 323 326 332 329 323 320 319 320 319 315 309 304 299 301 300 297 286 278 271 265 264 260 262 264 255 232 224 225 225 225 215 213 212 210 210 211 216 219 221
332 337 334 330 325 320 314 311 323 322 321 325 325 327 326 333 332 330 326 320 311 309 309 302 291 275 270 262 263 264 259 260 260 236 227 220 224 224 216 213 211 210 209 211 215 218 223
342 339 336 335 331 324 318 316 320 323 323 327 331 335 343 349 339 334 330 328 317 308 306 302 290 277 274 270 265 265 265 269 266 251 234 217 219 223 218 210 209 209 209 210 214 216 221
351 357 358 359 359 357 355 346 340 331 333 342 346 355 3 355 345 341 336 328 322 323 320 311 297 284 274 277 274 272 267 257 256 251 231 220 215 216 206 210 207 206 209 210 215 216 220
2 358 354 352 353 352 352 354 355 354 354 359 6 13 11 6 4 358 348 345 342 331 315 316 302 281 283 294 297 268 254 244 244 247 225 214 212 209 196 198 199 205 207 209 214 216 216
356 355 353 353 352 358 4 9 4 2 9 18 17 15 19 15 15 14 8 4 350 338 320 324 317 288 312 312 318 277 256 249 239 253 231 205 207 206 204 197 197 202 204 208 212 216 214
356 355 356 356 6 10 6 6 13 25 26 23 21 23 21 18 21 23 23 18 356 345 333 345 2 5 344 355 348 331 286 258 231 227 213 190 199 201 204 189 203 204 204 206 210 216 220
354 355 359 5 16 5 11 21 30 30 39 32 27 26 22 20 20 22 22 29 15 357 352 7 22 10 9 359 23 49 11 206 193 203 189 169 186 197 204 194 197 204 207 203 206 212 216
3 3 1 14 10 7 17 23 31 44 36 29 25 24 20 18 19 20 22 24 30 23 24 19 30 15 15 66 77 78 78 81 141 143 141 160 179 190 191 193 196 197 208 206 206 209 213
3 1 0 1 7 21 28 35 33 33 36 27 28 25 21 18 21 22 23 23 28 30 29 45 51 36 71 69 80 85 89 105 105 104 125 156 184 187 193 178 195 203 207 208 211 213 208
Height
5861 5860 5858 5857 5855 5853 5851 5850 5848 5846 5845 5844 5842 5841 5840 5839 5838 5837 5837 5837 5836 5836 5836 5836 5838 5840 5839 5838 5842 5841 5842 5843 5845 5847 5849 5852 5856 5858 5859 5861 5864 5866 5869 5870 5872 5875 5878
5859 5857 5856 5854 5852 5851 5849 5847 5845 5843 5841 5840 5838 5837 5836 5835 5833 5832 5832 5831 5830 5830 5830 5831 5831 5833 5834 5833 5835 5837 5838 5838 5839 5842 5845 5847 5850 5852 5853 5857 5860 5862 5865 5869 5872 5874 5877
5858 5856 5854 5852 5850 5848 5846 5844 5842 5840 5838 5835 5834 5832 5831 5829 5828 5827 5825 5826 5825 5825 5824 5825 5826 5826 5826 5829 5829 5831 5832 5834 5834 5836 5838 5840 5842 5847 5851 5854 5854 5859 5864 5867 5870 5873 5877
5858 5855 5853 5851 5848 5846 5843 5840 5838 5835 5833 5830 5828 5826 5825 5823 5821 5820 5819 5819 5817 5816 5817 5819 5820 5819 5820 5820 5822 5824 5827 5828 5829 5831 5833 5836 5838 5841 5845 5850 5850 5855 5858 5863 5867 5870 5874
5856 5853 5850 5848 5845 5842 5839 5836 5833 5830 5828 5825 5822 5819 5819 5817 5814 5813 5812 5810 5809 5807 5808 5810 5812 5813 5814 5814 5814 5816 5818 5820 5821 5823 5826 5828 5833 5836 5839 5844 5846 5848 5857 5861 5863 5868 5872
5854 5850 5847 5844 5840 5837 5834 5831 5827 5824 5821 5818 5815 5812 5810 5809 5807 5805 5804 5801 5800 5798 5799 5802 5803 5806 5805 5805 5805 5806 5809 5810 5813 5814 5817 5822 5827 5832 5834 5837 5841 5848 5857 5858 5860 5865 5869
5849 5845 5842 5838 5835 5831 5827 5824 5821 5817 5814 5811 5808 5804 5801 5799 5797 5796 5794 5791 5790 5788 5788 5790 5792 5794 5793 5794 5794 5797 5800 5800 5803 5806 5810 5815 5819 5827 5839 5837 5841 5846 5849 5854 5858 5861 5865
5846 5841 5837 5832 5828 5824 5820 5816 5813 5810 5806 5802 5799 5794 5791 5787 5784 5781 5780 5777 5773 5775 5771 5776 5777 5780 5782 5780 5781 5784 5789 5790 5793 5798 5800 5804 5813 5828 5823 5826 5832 5835 5841 5848 5853 5853 5858
5841 5836 5832 5827 5822 5817 5813 5809 5804 5800 5795 5791 5787 5783 5779 5774 5771 5766 5764 5763 5758 5757 5758 5759 5761 5765 5766 5765 5766 5767 5773 5777 5781 5785 5790 5794 5812 5812 5814 5818 5822 5827 5834 5842 5850 5847 5849
5835 5830 5825 5820 5814 5809 5804 5799 5794 5788 5783 5780 5776 5772 5767 5762 5759 5753 5750 5748 5745 5743 5743 5744 5746 5749 5750 5747 5750 5751 5756 5762 5766 5772 5777 5780 5797 5797 5803 5809 5815 5819 5830 5835 5839 5840 5842
5828 5822 5816 5810 5805 5799 5793 5788 5783 5778 5773 5769 5765 5760 5755 5750 5748 5744 5741 5737 5735 5733 5729 5733 5732 5732 5734 5735 5734 5737 5740 5745 5749 5755 5761 5771 5784 5785 5791 5805 5807 5820 5819 5823 5829 5831 5835
5819 5814 5808 5802 5795 5789 5783 5777 5773 5768 5763 5759 5754 5750 5745 5742 5738 5735 5732 5729 5727 5726 5722 5724 5724 5723 5723 5722 5722 5723 5723 5728 5732 5739 5744 5756 5768 5773 5782 5792 5795 5809 5807 5810 5814 5819 5814
5810 5804 5798 5792 5787 5781 5774 5768 5763 5759 5754 5748 5744 5740 5735 5731 5728 5726 5724 5721 5720 5717 5716 5715 5713 5712 5711 5710 5709 5708 5712 5711 5715 5723 5729 5737 5754 5757 5766 5776 5783 5789 5794 5796 5799 5798 5801
5802 5796 5789 5783 5778 5772 5765 5759 5753 5748 5743 5738 5732 5727 5725 5721 5719 5717 5716 5713 5711 5709 5706 5703 5702 5698 5697 5697 5697 5696 5697 5699 5701 5705 5714 5720 5736 5743 5753 5764 5773 5777 5783 5784 5785 5790 5800
5795 5788 5781 5775 5769 5763 5756 5749 5743 5737 5733 5729 5722 5717 5714 5712 5709 5709 5708 5704 5701 5698 5696 5693 5690 5685 5682 5682 5683 5683 5684 5685 5689 5692 5696 5704 5717 5729 5739 5747 5756 5763 5766 5782 5784 5789 5796
5787 5779 5772 5766 5759 5751 5744 5739 5734 5727 5723 5718 5714 5709 5705 5703 5702 5701 5698 5693 5690 5687 5683 5680 5676 5672 5668 5667 5668 5669 5669 5673 5676 5679 5683 5687 5700 5713 5724 5734 5741 5753 5766 5766 5768 5776 5784
5777 5769 5762 5755 5747 5740 5734 5729 5725 5719 5714 5709 5704 5701 5698 5698 5696 5692 5687 5683 5678 5674 5669 5665 5662 5658 5655 5653 5653 5654 5654 5658 5659 5665 5669 5676 5681 5699 5710 5718 5735 5743 5745 5754 5763 5769 5776
5767 5760 5752 5744 5736 5730 5725 5721 5718 5713 5705 5699 5697 5696 5693 5690 5687 5682 5677 5671 5665 5659 5654 5650 5647 5643 5640 5639 5639 5640 5640 5642 5644 5649 5655 5660 5665 5680 5696 5710 5722 5726 5737 5743 5749 5756 5762
5757 5750 5742 5734 5727 5723 5718 5714 5710 5705 5698 5695 5693 5691 5687 5683 5677 5672 5666 5659 5652 5648 5643 5638 5634 5630 5628 5628 5627 5629 5628 5627 5629 5632 5638 5642 5650 5665 5683 5698 5705 5711 5721 5731 5740 5745 5754
5749 5742 5734 5727 5723 5718 5712 5708 5703 5699 5694 5691 5689 5684 5679 5674 5669 5663 5657 5651 5643 5636 5630 5625 5621 5618 5618 5616 5615 5615 5616 5614 5617 5619 5623 5626 5638 5651 5667 5680 5687 5699 5709 5721 5728 5738 5748
5742 5735 5729 5722 5716 5711 5705 5701 5697 5693 5690 5687 5683 5678 5670 5665 5658 5650 5645 5639 5631 5626 5619 5613 5609 5608 5606 5604 5603 5604 5603 5602 5606 5608 5611 5616 5626 5636 5653 5664 5676 5690 5703 5712 5720 5733 5739
5739 5731 5724 5716 5709 5703 5698 5694 5692 5689 5686 5682 5677 5673 5667 5660 5652 5643 5635 5628 5622 5616 5610 5604 5601 5598 5596 5595 5594 5592 5592 5592 5593 5596 5601 5606 5616 5626 5643 5655 5667 5681 5695 5703 5713 5726 5731
5736 5728 5721 5714 5707 5701 5695 5692 5689 5686 5682 5678 5675 5670 5664 5659 5651 5641 5633 5625 5618 5607 5602 5596 5592 5589 5588 5586 5584 5582 5581 5582 5583 5585 5590 5597 5606 5620 5636 5647 5659 5675 5685 5696 5706 5715 5725
5736 5729 5722 5715 5708 5702 5697 5692 5687 5684 5681 5678 5673 5668 5665 5658 5649 5639 5630 5621 5610 5600 5594 5590 5586 5583 5583 5580 5575 5572 5569 5572 5574 5577 5580 5589 5600 5614 5629 5638 5652 5667 5677 5690 5698 5707 5720
5736 5729 5722 5715 5709 5703 5697 5692 5687 5684 5681 5678 5672 5669 5664 5657 5649 5638 5627 5615 5605 5595 5590 5585 5582 5580 5579 5573 5567 5563 5562 5564 5568 5570 5573 5581 5594 5609 5621 5633 5645 5655 5667 5681 5691 5702 5713
5737 5730 5723 5716 5710 5704 5698 5693 5688 5685 5682 5678 5673 5668 5663 5657 5648 5637 5626 5614 5603 5594 5587 5583 5580 5579 5577 5569 5563 5559 5555 5556 5559 5562 5566 5577 5591 5607 5619 5630 5639 5647 5662 5673 5687 5698 5708
5737 5730 5724 5718 5712 5706 5701 5696 5692 5688 5684 5680 5674 5668 5664 5657 5647 5637 5626 5615 5603 5593 5587 5584 5582 5580 5575 5569 5563 5558 5556 5555 5555 5558 5567 5579 5590 5606 5616 5628 5636 5646 5657 5673 5683 5696 5704
5738 5731 5726 5720 5714 5708 5703 5699 5695 5691 5687 5683 5677 5671 5665 5657 5648 5638 5627 5617 5607 5596 5589 5588 5586 5584 5577 5571 5566 5562 5559 5557 5558 5564 5574 5587 5595 5605 5616 5626 5636 5643 5654 5669 5677 5687 5701
5739 5734 5728 5722 5717 5712 5707 5702 5698 5694 5690 5685 5679 5672 5666 5658 5650 5641 5632 5623 5613 5603 5593 5592 5592 5590 5586 5582 5577 5572 5569 5570 5572 5575 5583 5594 5599 5606 5615 5618 5630 5636 5648 5661 5673 5685 5698